OAL638 SGAS-SLPO

Flight info

Callsign OAL638
Flight time 1h 34m
Altitude 34000
Route SUSRU ISAGU UM548 DAKRO
Aircraft B738/M-VGDW/C

Departure

Time 2026-05-08 10:13
Airport Silvio Pettirossi International Airport (SGAS)

Arrival

Time 2026-05-08 11:48
Airport Capitan Nicolas Rojas Airport (SLPO)
Time Latitude Longitude Altitude Speed Heading
2026-05-08 09:56 -25.24083 -57.51508 278 ft 0 kts 150°
2026-05-08 10:00 -25.24080 -57.51510 241 ft 3 kts 150°
2026-05-08 10:00 -25.24065 -57.51524 277 ft 3 kts 94°
2026-05-08 10:01 -25.24066 -57.51539 277 ft 3 kts 78°
2026-05-08 10:01 -25.24073 -57.51561 285 ft 3 kts 44°
2026-05-08 10:01 -25.24092 -57.51566 282 ft 3 kts 334°
2026-05-08 10:01 -25.24099 -57.51560 282 ft 0 kts 305°
2026-05-08 10:08 -25.24095 -57.51567 281 ft 5 kts 300°
2026-05-08 10:08 -25.24134 -57.51616 279 ft 14 kts 192°
2026-05-08 10:08 -25.24248 -57.51644 280 ft 15 kts 200°
2026-05-08 10:09 -25.24304 -57.51704 281 ft 12 kts 265°
2026-05-08 10:09 -25.24331 -57.51778 282 ft 11 kts 205°
2026-05-08 10:09 -25.24408 -57.51799 283 ft 11 kts 192°
2026-05-08 10:09 -25.24501 -57.51821 284 ft 17 kts 192°
2026-05-08 10:10 -25.24631 -57.51852 286 ft 21 kts 193°
2026-05-08 10:10 -25.24773 -57.51887 287 ft 21 kts 192°
2026-05-08 10:10 -25.24912 -57.51921 289 ft 20 kts 192°
2026-05-08 10:10 -25.25047 -57.51953 291 ft 19 kts 192°
2026-05-08 10:11 -25.25177 -57.51984 293 ft 19 kts 192°
2026-05-08 10:11 -25.25302 -57.52013 294 ft 18 kts 192°
2026-05-08 10:11 -25.25421 -57.52041 296 ft 17 kts 192°
2026-05-08 10:11 -25.25480 -57.52114 299 ft 6 kts 269°
2026-05-08 10:12 -25.25475 -57.52158 299 ft 2 kts 282°
2026-05-08 10:12 -25.25473 -57.52167 298 ft 0 kts 283°
2026-05-08 10:12 -25.25467 -57.52194 298 ft 8 kts 283°
2026-05-08 10:12 -25.25419 -57.52258 300 ft 15 kts 353°
2026-05-08 10:13 -25.25314 -57.52235 295 ft 24 kts 13°
2026-05-08 10:13 -25.24826 -57.52115 287 ft 118 kts 12°
2026-05-08 10:13 -25.23754 -57.51852 356 ft 190 kts 13°
2026-05-08 10:13 -25.22402 -57.51503 1308 ft 200 kts 14°
2026-05-08 10:14 -25.21045 -57.51485 2734 ft 197 kts 343°
2026-05-08 10:14 -25.19876 -57.52398 3379 ft 221 kts 300°
2026-05-08 10:14 -25.19473 -57.54065 3745 ft 235 kts 268°
2026-05-08 10:14 -25.19507 -57.55869 4460 ft 239 kts 269°
2026-05-08 10:15 -25.18988 -57.57734 4783 ft 272 kts 295°
2026-05-08 10:15 -25.18061 -57.59574 5714 ft 272 kts 295°
2026-05-08 10:15 -25.17163 -57.61401 6760 ft 270 kts 295°
2026-05-08 10:15 -25.16264 -57.63213 7765 ft 267 kts 296°
2026-05-08 10:16 -25.15378 -57.64969 8751 ft 265 kts 297°
2026-05-08 10:16 -25.14466 -57.66760 9725 ft 264 kts 297°
2026-05-08 10:16 -25.13569 -57.68504 10459 ft 270 kts 298°
2026-05-08 10:16 -25.12583 -57.70413 10662 ft 296 kts 298°
2026-05-08 10:17 -25.11536 -57.72432 10837 ft 319 kts 298°
2026-05-08 10:17 -25.10392 -57.74623 11084 ft 337 kts 299°
2026-05-08 10:17 -25.09204 -57.76890 11636 ft 344 kts 299°
2026-05-08 10:17 -25.07999 -57.79184 12311 ft 347 kts 300°
2026-05-08 10:18 -25.06785 -57.81490 12994 ft 349 kts 300°
2026-05-08 10:18 -25.05558 -57.83819 13633 ft 353 kts 300°
2026-05-08 10:18 -25.04320 -57.86169 14219 ft 356 kts 300°
2026-05-08 10:18 -25.03069 -57.88540 14788 ft 359 kts 300°
2026-05-08 10:19 -25.01808 -57.90931 15362 ft 362 kts 300°
2026-05-08 10:19 -25.00540 -57.93334 15919 ft 364 kts 300°
2026-05-08 10:19 -24.99260 -57.95758 16474 ft 367 kts 299°
2026-05-08 10:20 -24.96671 -58.00659 17521 ft 373 kts 299°
2026-05-08 10:20 -24.95355 -58.03146 18056 ft 377 kts 299°
2026-05-08 10:20 -24.94029 -58.05654 18524 ft 379 kts 299°
2026-05-08 10:20 -24.92697 -58.08169 18984 ft 381 kts 298°
2026-05-08 10:21 -24.91358 -58.10698 19470 ft 382 kts 298°
2026-05-08 10:21 -24.90016 -58.13229 19950 ft 384 kts 298°
2026-05-08 10:21 -24.88668 -58.15772 20417 ft 385 kts 298°
2026-05-08 10:21 -24.87310 -58.18333 20842 ft 388 kts 298°
2026-05-08 10:22 -24.85946 -58.20903 21282 ft 390 kts 298°
2026-05-08 10:22 -24.84577 -58.23481 21734 ft 391 kts 298°
2026-05-08 10:22 -24.83201 -58.26070 22172 ft 393 kts 298°
2026-05-08 10:22 -24.81828 -58.28640 22581 ft 395 kts 299°
2026-05-08 10:23 -24.80223 -58.31119 22975 ft 400 kts 307°
2026-05-08 10:23 -24.78257 -58.33318 23374 ft 406 kts 313°
2026-05-08 10:23 -24.76191 -58.35457 23728 ft 408 kts 312°
2026-05-08 10:23 -24.74136 -58.37620 24040 ft 409 kts 311°
2026-05-08 10:24 -24.72080 -58.39800 24365 ft 411 kts 311°
2026-05-08 10:24 -24.70024 -58.41989 24680 ft 412 kts 311°
2026-05-08 10:24 -24.67960 -58.44189 24992 ft 414 kts 311°
2026-05-08 10:24 -24.65883 -58.46403 25290 ft 416 kts 311°
2026-05-08 10:25 -24.63802 -58.48620 25592 ft 418 kts 311°
2026-05-08 10:25 -24.61713 -58.50844 25891 ft 419 kts 311°
2026-05-08 10:25 -24.59613 -58.53078 26186 ft 421 kts 311°
2026-05-08 10:25 -24.57504 -58.55320 26478 ft 423 kts 311°
2026-05-08 10:26 -24.55387 -58.57569 26765 ft 424 kts 311°
2026-05-08 10:26 -24.53260 -58.59827 27047 ft 426 kts 311°
2026-05-08 10:26 -24.51130 -58.62087 27315 ft 428 kts 311°
2026-05-08 10:26 -24.48986 -58.64362 27581 ft 429 kts 311°
2026-05-08 10:27 -24.46834 -58.66643 27845 ft 431 kts 311°
2026-05-08 10:27 -24.44671 -58.68935 28105 ft 432 kts 311°
2026-05-08 10:27 -24.42533 -58.71198 28433 ft 432 kts 311°
2026-05-08 10:27 -24.40376 -58.73480 28846 ft 429 kts 311°
2026-05-08 10:28 -24.38234 -58.75745 29279 ft 427 kts 311°
2026-05-08 10:28 -24.36096 -58.78005 29670 ft 426 kts 311°
2026-05-08 10:28 -24.33965 -58.80257 30025 ft 426 kts 311°
2026-05-08 10:28 -24.31833 -58.82509 30362 ft 425 kts 311°
2026-05-08 10:29 -24.29707 -58.84754 30742 ft 422 kts 311°
2026-05-08 10:29 -24.27598 -58.86979 31133 ft 420 kts 311°
2026-05-08 10:29 -24.25497 -58.89196 31478 ft 419 kts 311°
2026-05-08 10:29 -24.23396 -58.91411 31824 ft 417 kts 311°
2026-05-08 10:30 -24.21306 -58.93614 32194 ft 416 kts 311°
2026-05-08 10:30 -24.19227 -58.95804 32556 ft 414 kts 311°
2026-05-08 10:30 -24.17156 -58.97985 32896 ft 413 kts 311°
2026-05-08 10:30 -24.15090 -59.00159 33231 ft 411 kts 311°
2026-05-08 10:31 -24.13034 -59.02321 33590 ft 409 kts 311°
2026-05-08 10:31 -24.10982 -59.04479 33934 ft 408 kts 311°
2026-05-08 10:31 -24.08928 -59.06640 33969 ft 412 kts 311°
2026-05-08 10:32 -24.04801 -59.10976 33996 ft 409 kts 311°
2026-05-08 10:32 -24.00705 -59.15271 34001 ft 406 kts 311°
2026-05-08 10:33 -23.96667 -59.19504 33996 ft 404 kts 311°
2026-05-08 10:33 -23.92585 -59.23779 33999 ft 403 kts 311°
2026-05-08 10:34 -23.88559 -59.27993 34001 ft 404 kts 311°
2026-05-08 10:34 -23.84498 -59.32239 34000 ft 405 kts 311°
2026-05-08 10:35 -23.80416 -59.36503 34001 ft 407 kts 311°
2026-05-08 10:35 -23.76315 -59.40783 34000 ft 408 kts 311°
2026-05-08 10:36 -23.72200 -59.45073 34004 ft 410 kts 311°
2026-05-08 10:36 -23.68067 -59.49378 33997 ft 411 kts 311°
2026-05-08 10:37 -23.63920 -59.53693 34001 ft 412 kts 311°
2026-05-08 10:37 -23.59768 -59.58009 34002 ft 413 kts 311°
2026-05-08 10:38 -23.55610 -59.62327 34000 ft 413 kts 311°
2026-05-08 10:38 -23.51457 -59.66637 34005 ft 412 kts 311°
2026-05-08 10:39 -23.47326 -59.70919 33997 ft 412 kts 311°
2026-05-08 10:39 -23.43171 -59.75223 34002 ft 412 kts 311°
2026-05-08 10:40 -23.39026 -59.79513 34004 ft 411 kts 311°
2026-05-08 10:40 -23.34879 -59.83801 33997 ft 411 kts 311°
2026-05-08 10:41 -23.30733 -59.88084 33999 ft 411 kts 311°
2026-05-08 10:41 -23.26588 -59.92362 34009 ft 411 kts 311°
2026-05-08 10:42 -23.22464 -59.96615 34003 ft 411 kts 311°
2026-05-08 10:42 -23.18316 -60.00889 34009 ft 411 kts 311°
2026-05-08 10:43 -23.14164 -60.05163 34006 ft 411 kts 311°
2026-05-08 10:43 -23.10010 -60.09435 34007 ft 411 kts 311°
2026-05-08 10:44 -23.05841 -60.13719 34006 ft 412 kts 311°
2026-05-08 10:44 -23.01675 -60.17998 34009 ft 412 kts 311°
2026-05-08 10:45 -22.97536 -60.22301 34004 ft 411 kts 308°
2026-05-08 10:45 -22.94263 -60.27304 34014 ft 405 kts 298°
2026-05-08 10:46 -22.91312 -60.32482 34014 ft 406 kts 298°
2026-05-08 10:46 -22.88297 -60.37681 34010 ft 407 kts 299°
2026-05-08 10:47 -22.85274 -60.42880 34013 ft 408 kts 299°
2026-05-08 10:47 -22.82247 -60.48085 34011 ft 408 kts 299°
2026-05-08 10:48 -22.79217 -60.53293 34013 ft 408 kts 299°
2026-05-08 10:48 -22.76185 -60.58500 34010 ft 408 kts 299°
2026-05-08 10:49 -22.73662 -60.62831 34008 ft 409 kts 299°
2026-05-08 10:49 -22.70627 -60.68033 34015 ft 409 kts 299°
2026-05-08 10:50 -22.67095 -60.74084 34016 ft 409 kts 299°
2026-05-08 10:50 -22.64055 -60.79284 34009 ft 409 kts 299°
2026-05-08 10:51 -22.61507 -60.83640 34019 ft 409 kts 299°
2026-05-08 10:51 -22.58466 -60.88832 34018 ft 409 kts 299°
2026-05-08 10:52 -22.55419 -60.94030 34018 ft 409 kts 299°
2026-05-08 10:52 -22.52374 -60.99220 34018 ft 409 kts 299°
2026-05-08 10:53 -22.49347 -61.04375 34021 ft 408 kts 299°
2026-05-08 10:53 -22.46301 -61.09555 34020 ft 408 kts 299°
2026-05-08 10:54 -22.43251 -61.14739 34016 ft 408 kts 299°
2026-05-08 10:54 -22.40201 -61.19917 34019 ft 408 kts 299°
2026-05-08 10:55 -22.37149 -61.25093 34023 ft 408 kts 299°
2026-05-08 10:55 -22.34096 -61.30265 34029 ft 408 kts 299°
2026-05-08 10:56 -22.31042 -61.35435 34028 ft 408 kts 299°
2026-05-08 10:56 -22.27985 -61.40605 34238 ft 408 kts 299°
2026-05-08 10:57 -22.24895 -61.45829 34114 ft 417 kts 299°
2026-05-08 10:57 -22.20194 -61.53759 34038 ft 418 kts 299°
2026-05-08 10:58 -22.17059 -61.59041 34022 ft 418 kts 299°
2026-05-08 10:58 -22.13927 -61.64312 34027 ft 417 kts 299°
2026-05-08 10:59 -22.10799 -61.69572 34026 ft 416 kts 299°
2026-05-08 10:59 -22.07669 -61.74833 34030 ft 416 kts 299°
2026-05-08 11:00 -22.04543 -61.80080 34033 ft 416 kts 299°
2026-05-08 11:00 -22.01441 -61.85283 34035 ft 416 kts 299°
2026-05-08 11:01 -21.98309 -61.90530 34036 ft 416 kts 299°
2026-05-08 11:01 -21.95177 -61.95772 34034 ft 416 kts 299°
2026-05-08 11:02 -21.90473 -62.03636 34035 ft 417 kts 299°
2026-05-08 11:03 -21.87328 -62.08887 34036 ft 417 kts 299°
2026-05-08 11:03 -21.84179 -62.14140 34035 ft 417 kts 299°
2026-05-08 11:04 -21.81028 -62.19393 34038 ft 418 kts 299°
2026-05-08 11:04 -21.77874 -62.24643 34041 ft 418 kts 299°
2026-05-08 11:05 -21.74719 -62.29892 34047 ft 418 kts 299°
2026-05-08 11:05 -21.71554 -62.35151 34044 ft 419 kts 299°
2026-05-08 11:06 -21.68390 -62.40405 34041 ft 419 kts 299°
2026-05-08 11:06 -21.65221 -62.45663 34043 ft 419 kts 300°
2026-05-08 11:07 -21.62044 -62.50913 34042 ft 419 kts 300°
2026-05-08 11:07 -21.58885 -62.56127 34041 ft 418 kts 300°
2026-05-08 11:08 -21.55710 -62.61362 34046 ft 418 kts 300°
2026-05-08 11:08 -21.52541 -62.66587 34045 ft 418 kts 300°
2026-05-08 11:09 -21.49365 -62.71818 34046 ft 417 kts 300°
2026-05-08 11:09 -21.46197 -62.77030 34047 ft 417 kts 300°
2026-05-08 11:10 -21.43024 -62.82246 34050 ft 417 kts 300°
2026-05-08 11:10 -21.39850 -62.87458 34050 ft 417 kts 300°
2026-05-08 11:11 -21.36679 -62.92662 34047 ft 417 kts 300°
2026-05-08 11:11 -21.33504 -62.97869 34056 ft 417 kts 300°
2026-05-08 11:12 -21.30330 -63.03071 34045 ft 417 kts 300°
2026-05-08 11:12 -21.27219 -63.08318 34060 ft 417 kts 299°
2026-05-08 11:13 -21.24136 -63.13575 34063 ft 417 kts 299°
2026-05-08 11:13 -21.21042 -63.18835 34065 ft 417 kts 299°
2026-05-08 11:14 -21.17945 -63.24082 34070 ft 417 kts 299°
2026-05-08 11:14 -21.14842 -63.29330 34071 ft 416 kts 299°
2026-05-08 11:15 -21.11741 -63.34569 34069 ft 416 kts 299°
2026-05-08 11:15 -21.08662 -63.39766 34072 ft 415 kts 299°
2026-05-08 11:16 -21.05567 -63.44986 34070 ft 415 kts 300°
2026-05-08 11:16 -21.02466 -63.50211 34074 ft 416 kts 300°
2026-05-08 11:17 -20.99366 -63.55430 34066 ft 415 kts 299°
2026-05-08 11:17 -20.96262 -63.60649 34056 ft 415 kts 299°
2026-05-08 11:18 -20.93163 -63.65856 34065 ft 414 kts 299°
2026-05-08 11:18 -20.90073 -63.71042 34051 ft 413 kts 299°
2026-05-08 11:19 -20.86987 -63.76217 34055 ft 412 kts 299°
2026-05-08 11:19 -20.83908 -63.81377 34053 ft 411 kts 299°
2026-05-08 11:20 -20.80835 -63.86521 34052 ft 410 kts 299°
2026-05-08 11:20 -20.77767 -63.91654 34059 ft 409 kts 299°
2026-05-08 11:21 -20.74720 -63.96747 34055 ft 409 kts 299°
2026-05-08 11:21 -20.71660 -64.01857 34050 ft 409 kts 299°
2026-05-08 11:22 -20.68597 -64.06969 34057 ft 408 kts 299°
2026-05-08 11:22 -20.65532 -64.12080 34062 ft 408 kts 299°
2026-05-08 11:23 -20.62491 -64.17208 34069 ft 408 kts 298°
2026-05-08 11:23 -20.59459 -64.22332 34076 ft 409 kts 298°
2026-05-08 11:24 -20.56414 -64.27468 34064 ft 409 kts 299°
2026-05-08 11:24 -20.53366 -64.32600 34075 ft 409 kts 298°
2026-05-08 11:25 -20.50319 -64.37721 34079 ft 409 kts 298°
2026-05-08 11:25 -20.47289 -64.42813 34063 ft 409 kts 299°
2026-05-08 11:26 -20.44220 -64.47966 34060 ft 409 kts 299°
2026-05-08 11:26 -20.41188 -64.53052 34058 ft 409 kts 299°
2026-05-08 11:27 -20.38129 -64.58183 34032 ft 409 kts 298°
2026-05-08 11:27 -20.35075 -64.63298 34022 ft 410 kts 299°
2026-05-08 11:28 -20.32015 -64.68431 34019 ft 410 kts 298°
2026-05-08 11:28 -20.28960 -64.73575 34010 ft 411 kts 298°
2026-05-08 11:29 -20.25905 -64.78716 34005 ft 410 kts 298°
2026-05-08 11:29 -20.22853 -64.83847 34000 ft 410 kts 298°
2026-05-08 11:30 -20.19801 -64.88971 33997 ft 409 kts 298°
2026-05-08 11:30 -20.16749 -64.94096 33993 ft 410 kts 298°
2026-05-08 11:30 -20.15211 -64.96675 33494 ft 416 kts 298°
2026-05-08 11:31 -20.13670 -64.99262 32927 ft 413 kts 299°
2026-05-08 11:31 -20.12146 -65.01834 32526 ft 407 kts 299°
2026-05-08 11:31 -20.10641 -65.04378 32024 ft 405 kts 299°
2026-05-08 11:31 -20.09151 -65.06900 31569 ft 402 kts 299°
2026-05-08 11:32 -20.07667 -65.09411 31103 ft 399 kts 300°
2026-05-08 11:32 -20.06195 -65.11900 30658 ft 397 kts 300°
2026-05-08 11:32 -20.04746 -65.14349 30220 ft 395 kts 300°
2026-05-08 11:32 -20.03265 -65.16851 29698 ft 394 kts 300°
2026-05-08 11:33 -20.01811 -65.19305 29202 ft 391 kts 300°
2026-05-08 11:33 -20.00387 -65.21707 28745 ft 388 kts 300°
2026-05-08 11:33 -19.98947 -65.24133 28291 ft 385 kts 300°
2026-05-08 11:33 -19.97524 -65.26532 27841 ft 383 kts 300°
2026-05-08 11:34 -19.96109 -65.28917 27411 ft 380 kts 300°
2026-05-08 11:34 -19.94700 -65.31290 26984 ft 378 kts 300°
2026-05-08 11:34 -19.93296 -65.33653 26544 ft 378 kts 300°
2026-05-08 11:34 -19.91895 -65.36011 26119 ft 377 kts 300°
2026-05-08 11:35 -19.90483 -65.38389 25704 ft 385 kts 300°
2026-05-08 11:35 -19.89527 -65.39999 25391 ft 393 kts 300°
2026-05-08 11:35 -19.88064 -65.42460 24935 ft 395 kts 300°
2026-05-08 11:35 -19.86597 -65.44924 24468 ft 393 kts 300°
2026-05-08 11:36 -19.85139 -65.47372 24019 ft 392 kts 300°
2026-05-08 11:36 -19.83566 -65.49749 23516 ft 394 kts 308°
2026-05-08 11:36 -19.81602 -65.51788 23031 ft 395 kts 318°
2026-05-08 11:36 -19.79340 -65.53434 22559 ft 396 kts 328°
2026-05-08 11:37 -19.76918 -65.54811 22117 ft 393 kts 329°
2026-05-08 11:37 -19.74523 -65.56188 21667 ft 391 kts 329°
2026-05-08 11:37 -19.72147 -65.57574 21218 ft 388 kts 328°
2026-05-08 11:37 -19.69784 -65.58962 20664 ft 389 kts 328°
2026-05-08 11:38 -19.67418 -65.60356 20226 ft 387 kts 328°
2026-05-08 11:38 -19.65067 -65.61741 19774 ft 386 kts 328°
2026-05-08 11:38 -19.62722 -65.63121 19280 ft 385 kts 328°
2026-05-08 11:38 -19.60289 -65.64307 18902 ft 385 kts 341°
2026-05-08 11:39 -19.57633 -65.64724 18436 ft 389 kts
2026-05-08 11:39 -19.55036 -65.64046 18148 ft 384 kts 26°
2026-05-08 11:39 -19.52997 -65.62296 17984 ft 374 kts 54°
2026-05-08 11:39 -19.51774 -65.59955 17905 ft 364 kts 69°
2026-05-08 11:40 -19.51124 -65.57440 17780 ft 346 kts 84°
2026-05-08 11:40 -19.50901 -65.54940 17728 ft 329 kts 86°
2026-05-08 11:40 -19.50697 -65.52602 17631 ft 318 kts 86°
2026-05-08 11:40 -19.50483 -65.50324 17611 ft 302 kts 85°
2026-05-08 11:41 -19.50081 -65.48209 17486 ft 288 kts 63°
2026-05-08 11:41 -19.48789 -65.46720 17437 ft 259 kts 26°
2026-05-08 11:41 -19.47235 -65.46090 17402 ft 229 kts
2026-05-08 11:41 -19.45767 -65.46063 17410 ft 193 kts 346°
2026-05-08 11:42 -19.44520 -65.46498 17329 ft 191 kts 328°
2026-05-08 11:42 -19.43460 -65.47314 17317 ft 189 kts 310°
2026-05-08 11:42 -19.42707 -65.48425 17252 ft 183 kts 292°
2026-05-08 11:42 -19.42334 -65.49686 17229 ft 178 kts 275°
2026-05-08 11:43 -19.42265 -65.50994 17182 ft 178 kts 265°
2026-05-08 11:43 -19.42487 -65.52277 17128 ft 178 kts 250°
2026-05-08 11:43 -19.42996 -65.53494 16887 ft 181 kts 238°
2026-05-08 11:43 -19.43659 -65.54600 16715 ft 175 kts 237°
2026-05-08 11:44 -19.44344 -65.55661 16481 ft 174 kts 236°
2026-05-08 11:44 -19.45016 -65.56741 16240 ft 177 kts 238°
2026-05-08 11:44 -19.45670 -65.57836 16011 ft 175 kts 238°
2026-05-08 11:44 -19.46319 -65.58936 15741 ft 176 kts 238°
2026-05-08 11:45 -19.46961 -65.60017 15480 ft 170 kts 238°
2026-05-08 11:45 -19.47596 -65.61074 15234 ft 171 kts 238°
2026-05-08 11:45 -19.48230 -65.62154 14970 ft 175 kts 239°
2026-05-08 11:45 -19.48858 -65.63225 14770 ft 170 kts 239°
2026-05-08 11:46 -19.49487 -65.64275 14541 ft 167 kts 239°
2026-05-08 11:46 -19.50075 -65.65345 14270 ft 169 kts 246°
2026-05-08 11:46 -19.50650 -65.66433 14091 ft 171 kts 239°
2026-05-08 11:46 -19.51281 -65.67528 13755 ft 176 kts 238°
2026-05-08 11:47 -19.51943 -65.68593 13560 ft 174 kts 236°
2026-05-08 11:47 -19.52617 -65.69666 13273 ft 172 kts 236°
2026-05-08 11:47 -19.53253 -65.70720 12906 ft 168 kts 237°
2026-05-08 11:47 -19.53892 -65.71719 12724 ft 153 kts 236°
2026-05-08 11:48 -19.54267 -65.72307 12761 ft 40 kts 235°
2026-05-08 11:48 -19.54318 -65.72386 12766 ft 10 kts 235°
2026-05-08 11:48 -19.54370 -65.72465 12773 ft 15 kts 235°
2026-05-08 11:48 -19.54435 -65.72563 12780 ft 17 kts 235°
2026-05-08 11:49 -19.54502 -65.72666 12786 ft 17 kts 234°
2026-05-08 11:49 -19.54562 -65.72768 12795 ft 16 kts 238°
2026-05-08 11:49 -19.54622 -65.72864 12801 ft 15 kts 236°
2026-05-08 11:49 -19.54683 -65.72960 12808 ft 17 kts 236°
2026-05-08 11:50 -19.54768 -65.73042 12813 ft 15 kts 205°
2026-05-08 11:50 -19.54842 -65.73081 12817 ft 8 kts 217°
2026-05-08 11:50 -19.54860 -65.73104 12819 ft 3 kts 239°
2026-05-08 11:50 -19.54881 -65.73131 12824 ft 2 kts 221°